Benson, MN

6:32 PM CDT on May 22, 2017 (GMT -0500)
Benson Municipal

Weather History for KBBB - October, 2013

Change the Weather History Date:

Friday, October 18, 2013

  Actual Average Record
Temperature  
Mean Temperature 40 °F -  
Max Temperature 53 °F 55 °F 84 °F (2005)
Min Temperature 26 °F 34 °F 14 °F (1972)
Degree Days  
Heating Degree Days 26    
Moisture  
Dew Point 32 °F    
Average Humidity 78    
Maximum Humidity 100    
Minimum Humidity 40    
Precipitation  
Precipitation 0.00 in - - ()
Sea Level Pressure  
Sea Level Pressure 29.94 in    
Wind  
Wind Speed 6 mph (NW)    
Max Wind Speed 14 mph    
Max Gust Speed 22 mph    
Visibility 10 miles    
Events Rain    
Averages and records for this station are not official NWS values.
T = Trace of Precipitation, MM = Missing Value Source: NWS Daily Summary

Daily Weather History Graph

Daily Weather History Graph

Search for Another Location

Airport or City:

Trip Planner

Search our weather history database for the weather conditions in past years. The results will help you decide how hot, cold, wet, or windy it might be!

Date:

Astronomy

Oct. 18, 2013 Rise Set
Actual Time 7:43 AM CDT 6:31 PM CDT
Civil Twilight 7:13 AM CDT 7:01 PM CDT
Nautical Twilight 6:38 AM CDT 7:35 PM CDT
Astronomical Twilight 6:04 AM CDT 8:09 PM CDT
Moon 6:20 PM CDT (10/18) 7:19 AM CDT (10/18)
Length of Visible Light 11h 48m
Length of Day
10h 48m
Full, 100% of the Moon is Illuminated
Oct 18
Full
Oct 18
Full
Oct 26
Last Quarter
Nov 3
New
Nov 9
First Quarter

Hourly Weather History & Observations

Time (CDT) Temp. Windchill Dew Point Humidity Pressure Visibility Wind Dir Wind Speed Gust Speed Precip Events Conditions
12:12 AM 39.2 °F 33.6 °F 35.6 °F 87% 29.95 in 10.0 mi NNW 8.1 mph - N/A   Overcast
12:32 AM 39.2 °F 33.0 °F 35.6 °F 87% 29.95 in 10.0 mi NNW 9.2 mph - N/A   Overcast
12:53 AM 37.4 °F 30.3 °F 33.8 °F 87% 29.95 in 10.0 mi NNW 10.4 mph - N/A   Overcast
1:12 AM 37.4 °F 30.3 °F 33.8 °F 87% 29.96 in 10.0 mi NNW 10.4 mph - N/A   Overcast
1:32 AM 37.4 °F 31.4 °F 33.8 °F 87% 29.96 in 10.0 mi NNW 8.1 mph - N/A   Overcast
1:53 AM 37.4 °F 31.4 °F 33.8 °F 87% 29.96 in 10.0 mi NNW 8.1 mph - N/A   Overcast
2:12 AM 35.6 °F 29.9 °F 32.0 °F 87% 29.96 in 10.0 mi North 6.9 mph - N/A   Overcast
2:32 AM 35.6 °F 30.7 °F 30.2 °F 81% 29.96 in 10.0 mi North 5.8 mph - N/A   Overcast
2:53 AM 33.8 °F 29.6 °F 30.2 °F 87% 29.97 in 10.0 mi North 4.6 mph - N/A   Mostly Cloudy
3:12 AM 32.0 °F 26.4 °F 30.2 °F 93% 29.97 in 10.0 mi NNW 5.8 mph - N/A   Scattered Clouds
3:32 AM 30.2 °F - 28.4 °F 93% 29.97 in 10.0 mi Calm Calm - N/A   Clear
3:53 AM 30.2 °F - 28.4 °F 93% 29.96 in 10.0 mi Calm Calm - N/A   Clear
4:12 AM 30.2 °F - 28.4 °F 93% 29.96 in 10.0 mi Calm Calm - N/A   Scattered Clouds
4:33 AM 30.2 °F 26.7 °F 28.4 °F 93% 29.96 in 10.0 mi NNW 3.5 mph - N/A   Scattered Clouds
4:53 AM 30.2 °F 26.7 °F 28.4 °F 93% 29.97 in 10.0 mi NNW 3.5 mph - N/A   Scattered Clouds
5:12 AM 28.4 °F - 28.4 °F 100% 29.97 in 10.0 mi Calm Calm - N/A   Clear
5:33 AM 28.4 °F 24.6 °F 28.4 °F 100% 29.97 in 10.0 mi NNW 3.5 mph - N/A   Clear
5:52 AM 28.4 °F - 26.6 °F 93% 29.98 in 10.0 mi Calm Calm - N/A   Clear
6:13 AM 28.4 °F - 26.6 °F 93% 29.98 in 10.0 mi Calm Calm - N/A   Clear
6:33 AM 28.4 °F 24.6 °F 28.4 °F 100% 29.98 in 10.0 mi West 3.5 mph - N/A   Clear
6:52 AM 28.4 °F 23.3 °F 28.4 °F 100% 29.98 in 10.0 mi West 4.6 mph - N/A   Clear
7:13 AM 28.4 °F - 26.6 °F 93% 29.99 in 10.0 mi Calm Calm - N/A   Clear
7:32 AM 28.4 °F - 28.4 °F 100% 29.99 in 10.0 mi Calm Calm - N/A   Clear
7:52 AM 26.6 °F - 26.6 °F 100% 29.99 in 10.0 mi Calm Calm - N/A   Clear
8:13 AM 28.4 °F - 28.4 °F 100% 29.99 in 10.0 mi Calm Calm - N/A   Clear
8:32 AM 28.4 °F - 26.6 °F 93% 30.00 in 10.0 mi Calm Calm - N/A   Clear
8:52 AM 30.2 °F - 30.2 °F 100% 30.00 in 10.0 mi Calm Calm - N/A   Clear
9:13 AM 33.8 °F - 30.2 °F 87% 30.00 in 10.0 mi Calm Calm - N/A   Clear
9:32 AM 33.8 °F - 32.0 °F 93% 30.00 in 10.0 mi Calm Calm - N/A   Clear
9:52 AM 37.4 °F 34.9 °F 33.8 °F 87% 30.00 in 10.0 mi NW 3.5 mph - N/A   Clear
10:13 AM 39.2 °F 35.9 °F 33.8 °F 81% 30.00 in 10.0 mi NNW 4.6 mph - N/A   Clear
10:32 AM 41.0 °F 39.0 °F 33.8 °F 76% 29.99 in 10.0 mi NW 3.5 mph - N/A   Clear
10:53 AM 44.6 °F 42.2 °F 33.8 °F 66% 29.99 in 10.0 mi NW 4.6 mph - N/A   Clear
11:13 AM 44.6 °F 40.7 °F 35.6 °F 71% 29.99 in 10.0 mi NW 6.9 mph - N/A   Clear
11:32 AM 46.4 °F 42.4 °F 33.8 °F 62% 29.99 in 10.0 mi NNW 8.1 mph - N/A   Clear
11:53 AM 48.2 °F - 35.6 °F 62% 29.99 in 10.0 mi NW 3.5 mph - N/A   Clear
12:13 PM 48.2 °F - 33.8 °F 58% 29.99 in 10.0 mi WNW 10.4 mph - N/A   Clear
12:32 PM 50.0 °F - 33.8 °F 54% 29.98 in 10.0 mi WNW 8.1 mph - N/A   Clear
12:53 PM 50.0 °F - 33.8 °F 54% 29.97 in 10.0 mi NW 9.2 mph - N/A   Clear
1:13 PM 51.8 °F - 33.8 °F 50% 29.96 in 10.0 mi West 10.4 mph 17.3 mph N/A   Scattered Clouds
1:32 PM 50.0 °F - 32.0 °F 50% 29.95 in 10.0 mi WNW 10.4 mph - N/A   Scattered Clouds
1:53 PM 51.8 °F - 30.2 °F 44% 29.94 in 10.0 mi NW 10.4 mph 18.4 mph N/A   Scattered Clouds
2:12 PM 53.6 °F - 30.2 °F 41% 29.93 in 10.0 mi WNW 10.4 mph - N/A   Mostly Cloudy
2:33 PM 51.8 °F - 28.4 °F 41% 29.92 in 10.0 mi NW 10.4 mph - N/A   Scattered Clouds
2:53 PM 51.8 °F - 28.4 °F 41% 29.91 in 10.0 mi WNW 10.4 mph - N/A   Scattered Clouds
3:12 PM 51.8 °F - 28.4 °F 41% 29.91 in 10.0 mi NW 10.4 mph 16.1 mph N/A   Scattered Clouds
3:33 PM 50.0 °F - 28.4 °F 43% 29.91 in 10.0 mi WNW 13.8 mph - N/A   Mostly Cloudy
3:53 PM 50.0 °F - 26.6 °F 40% 29.91 in 10.0 mi NW 10.4 mph - N/A   Overcast
4:12 PM 48.2 °F - 28.4 °F 46% 29.91 in 10.0 mi NW 10.4 mph - N/A   Overcast
4:33 PM 50.0 °F - 30.2 °F 47% 29.90 in 10.0 mi NNW 9.2 mph - N/A   Overcast
4:53 PM 48.2 °F - 30.2 °F 50% 29.90 in 10.0 mi NW 11.5 mph - N/A   Overcast
5:12 PM 48.2 °F - 32.0 °F 54% 29.90 in 10.0 mi NW 9.2 mph - N/A   Overcast
5:33 PM 48.2 °F - 33.8 °F 58% 29.89 in 10.0 mi NW 10.4 mph - N/A   Mostly Cloudy
5:53 PM 46.4 °F 43.5 °F 33.8 °F 62% 29.89 in 10.0 mi NW 5.8 mph - N/A   Overcast
6:12 PM 46.4 °F 43.5 °F 35.6 °F 66% 29.89 in 10.0 mi NW 5.8 mph - N/A   Overcast
6:33 PM 42.8 °F 36.6 °F 35.6 °F 76% 29.90 in 10.0 mi North 11.5 mph 21.9 mph N/A Rain Rain
6:53 PM 39.2 °F - 35.6 °F 87% 29.90 in 10.0 mi Calm Calm - N/A   Overcast
7:12 PM 39.2 °F - 35.6 °F 87% 29.89 in 10.0 mi Calm Calm - N/A   Overcast
7:33 PM 39.2 °F - 35.6 °F 87% 29.89 in 10.0 mi Calm Calm - N/A   Overcast
7:53 PM 39.2 °F - 35.6 °F 87% 29.89 in 10.0 mi Calm Calm - N/A   Overcast
8:12 PM 39.2 °F 35.0 °F 35.6 °F 87% 29.89 in 10.0 mi West 5.8 mph - N/A   Overcast
8:33 PM 39.2 °F 35.9 °F 35.6 °F 87% 29.88 in 10.0 mi WNW 4.6 mph - N/A   Mostly Cloudy
8:53 PM 37.4 °F 32.8 °F 33.8 °F 87% 29.88 in 10.0 mi West 5.8 mph - N/A   Scattered Clouds
9:12 PM 35.6 °F 29.9 °F 33.8 °F 93% 29.88 in 10.0 mi West 6.9 mph - N/A   Scattered Clouds
9:33 PM 35.6 °F 32.8 °F 32.0 °F 87% 29.87 in 10.0 mi West 3.5 mph - N/A   Scattered Clouds
9:53 PM 35.6 °F 32.8 °F 32.0 °F 87% 29.87 in 10.0 mi West 3.5 mph - N/A   Mostly Cloudy
10:12 PM 35.6 °F 32.8 °F 33.8 °F 93% 29.87 in 10.0 mi West 3.5 mph - N/A   Mostly Cloudy
10:33 PM 35.6 °F 31.7 °F 32.0 °F 87% 29.86 in 10.0 mi WSW 4.6 mph - N/A   Scattered Clouds
10:53 PM 35.6 °F 30.7 °F 33.8 °F 93% 29.85 in 10.0 mi WSW 5.8 mph - N/A   Mostly Cloudy
11:12 PM 35.6 °F 30.7 °F 33.8 °F 93% 29.84 in 10.0 mi WSW 5.8 mph - N/A   Mostly Cloudy
11:33 PM 35.6 °F 29.9 °F 33.8 °F 93% 29.84 in 10.0 mi WSW 6.9 mph - N/A   Mostly Cloudy
11:53 PM 35.6 °F 29.9 °F 33.8 °F 93% 29.83 in 10.0 mi WSW 6.9 mph - N/A   Overcast